Escatawpa, MS

1:22 AM CST on December 08, 2016 (GMT -0600)
Lott International

Weather History for KPQL - January, 2013

Change the Weather History Date:

Thursday, January 3, 2013

  Actual Average Record
Temperature  
Mean Temperature 40 °F -  
Max Temperature 48 °F 59 °F 75 °F (1955)
Min Temperature 33 °F 43 °F 19 °F (2001)
Degree Days  
Heating Degree Days 24    
Moisture  
Dew Point 35 °F    
Average Humidity 78    
Maximum Humidity 96    
Minimum Humidity 46    
Precipitation  
Precipitation 0.22 in - - ()
Sea Level Pressure  
Sea Level Pressure 30.27 in    
Wind  
Wind Speed 8 mph (North)    
Max Wind Speed 17 mph    
Max Gust Speed 21 mph    
Visibility 10 miles    
Events Rain    
Averages and records for this station are not official NWS values.
T = Trace of Precipitation, MM = Missing Value Source: NWS Daily Summary

Daily Weather History Graph

Daily Weather History Graph

Search for Another Location

Airport or City:

Trip Planner

Search our weather history database for the weather conditions in past years. The results will help you decide how hot, cold, wet, or windy it might be!

Date:

Astronomy

Jan. 03, 2013 Rise Set
Actual Time 6:51 AM CST 5:06 PM CST
Civil Twilight 6:25 AM CST 5:32 PM CST
Nautical Twilight 5:55 AM CST 6:02 PM CST
Astronomical Twilight 5:26 AM CST 6:31 PM CST
Moon 11:11 PM CST (1/3) 10:30 AM CST (1/3)
Length of Visible Light 11h 07m
Length of Day
10h 14m
Waning Gibbous, 65% of the Moon is Illuminated
Jan 3
Waning Gibbous
Jan 4
Last Quarter
Jan 11
New
Jan 18
First Quarter
Jan 26
Full

Hourly Weather History & Observations

Time (CST) Temp. Windchill Dew Point Humidity Pressure Visibility Wind Dir Wind Speed Gust Speed Precip Events Conditions
12:10 AM 44.6 °F 40.2 °F 41.0 °F 87% 30.20 in 6.0 mi NNW 8.1 mph - 0.04 in Rain Rain
12:53 AM 43.0 °F 39.5 °F 41.0 °F 93% 30.22 in 8.0 mi NNW 5.8 mph - 0.09 in Rain Light Rain
1:01 AM 42.8 °F 38.6 °F 41.0 °F 93% 30.21 in 8.0 mi North 6.9 mph - 0.00 in Rain Light Rain
2:00 AM 42.8 °F 37.0 °F 41.0 °F 93% 30.20 in 10.0 mi North 10.4 mph - 0.01 in Rain Light Rain
2:53 AM 43.0 °F 38.2 °F 41.0 °F 93% 30.21 in 9.0 mi North 8.1 mph - 0.03 in Rain Light Rain
3:53 AM 43.0 °F 41.3 °F 39.9 °F 89% 30.22 in 8.0 mi NNE 3.5 mph - 0.03 in Rain Light Rain
4:53 AM 42.1 °F 38.4 °F 41.0 °F 96% 30.24 in 8.0 mi NNW 5.8 mph - 0.02 in Rain Light Rain
5:39 AM 42.8 °F 38.0 °F 39.2 °F 87% 30.23 in 10.0 mi North 8.1 mph - 0.02 in Rain Light Rain
5:53 AM 42.1 °F 38.4 °F 39.0 °F 89% 30.24 in 10.0 mi North 5.8 mph - 0.02 in Rain Light Rain
6:08 AM 42.8 °F 38.6 °F 39.2 °F 87% 30.24 in 10.0 mi North 6.9 mph - 0.01 in Rain Light Rain
6:46 AM 41.0 °F 33.9 °F 39.2 °F 93% 30.26 in 9.0 mi North 12.7 mph - 0.03 in Rain Light Rain
6:53 AM 41.0 °F 34.7 °F 37.9 °F 89% 30.26 in 10.0 mi North 10.4 mph - 0.03 in Rain Light Rain
7:09 AM 41.0 °F 35.8 °F 39.2 °F 93% 30.26 in 10.0 mi North 8.1 mph - 0.00 in Rain Light Rain
7:53 AM 41.0 °F 34.3 °F 37.9 °F 89% 30.27 in 10.0 mi North 11.5 mph - 0.00 in Rain Light Rain
8:53 AM 41.0 °F 34.3 °F 36.0 °F 82% 30.29 in 10.0 mi North 11.5 mph - 0.00 in   Overcast
9:53 AM 42.1 °F 35.2 °F 35.1 °F 76% 30.30 in 10.0 mi North 12.7 mph 20.7 mph N/A   Overcast
10:53 AM 45.0 °F 37.6 °F 34.0 °F 65% 30.29 in 10.0 mi North 17.3 mph - N/A   Overcast
11:53 AM 45.0 °F 39.3 °F 35.1 °F 68% 30.27 in 10.0 mi North 11.5 mph - N/A   Overcast
12:53 PM 46.9 °F - 34.0 °F 61% 30.25 in 10.0 mi North 13.8 mph - N/A   Mostly Cloudy
1:53 PM 46.9 °F - 30.0 °F 52% 30.25 in 10.0 mi North 16.1 mph - N/A   Clear
2:53 PM 48.9 °F - 28.9 °F 46% 30.25 in 10.0 mi North 15.0 mph - N/A   Clear
3:53 PM 48.0 °F - 30.9 °F 52% 30.26 in 10.0 mi North 8.1 mph - N/A   Clear
4:53 PM 45.0 °F 40.1 °F 30.9 °F 58% 30.29 in 10.0 mi North 9.2 mph - N/A   Clear
5:53 PM 39.9 °F 36.7 °F 30.9 °F 70% 30.32 in 10.0 mi NNW 4.6 mph - N/A   Clear
6:53 PM 37.9 °F 33.5 °F 28.9 °F 70% 30.34 in 10.0 mi North 5.8 mph - N/A   Clear
7:53 PM 37.9 °F 35.5 °F 28.9 °F 70% 30.35 in 10.0 mi North 3.5 mph - N/A   Clear
8:53 PM 36.0 °F - 28.9 °F 76% 30.36 in 10.0 mi Calm Calm - N/A   Clear
9:53 PM 34.0 °F 29.8 °F 28.0 °F 79% 30.37 in 10.0 mi NNE 4.6 mph - N/A   Clear
10:53 PM 33.1 °F 26.9 °F 27.0 °F 78% 30.38 in 10.0 mi North 6.9 mph - N/A   Clear
11:53 PM 35.1 °F 30.1 °F 27.0 °F 72% 30.37 in 10.0 mi North 5.8 mph - N/A   Clear